When you browse on this site, cookies collect data to enhance your experience and personalize the content and advertising you see.
Visit our Privacy Policy to learn more. By continuing to use the site, you agree to this use of cookies and data.
  • In Belgium
  • List of Countries
  • For 7 days
  • Water Temperature
  • Satellite Maps
  • Weather Map
  • Weather Widgets
  • user-avatar
    Login

    Hourly Weather Przydroze

    Today, 23 February, Saturday

    Time Temperature Precipitation Wind Pressure Humidity
    00:00 -3°C° 0 mm 2 mps 772 mmHg 49%
    01:00 -3°C° 0 mm 2 mps 773 mmHg 47%
    02:00 -2°C° 0 mm 1 mps 773 mmHg 46%
    03:00 -2°C° 0 mm 1 mps 772 mmHg 45%
    04:00 -2°C° 0 mm 1 mps 772 mmHg 44%
    05:00 -2°C° 0 mm 1 mps 772 mmHg 44%
    06:00 -2°C° 0 mm 1 mps 772 mmHg 44%
    07:00 -3°C° 0 mm 1 mps 773 mmHg 44%
    08:00 -2°C° 0 mm 1 mps 773 mmHg 40%
    09:00 -1°C° 0 mm 1 mps 773 mmHg 37%
    10:00 -1°C° 0 mm 1 mps 773 mmHg 33%
    11:00 0°C° 0 mm 1 mps 772 mmHg 30%
    12:00 -1°C° 0 mm 2 mps 772 mmHg 28%
    13:00 +1°C° 0 mm 2 mps 772 mmHg 25%
    14:00 +1°C° 0 mm 2 mps 771 mmHg 26%
    15:00 +1°C° 0 mm 2 mps 771 mmHg 27%
    16:00 +2°C° 0 mm 2 mps 771 mmHg 28%
    17:00 +1°C° 0 mm 2 mps 771 mmHg 31%
    18:00 -1°C° 0 mm 2 mps 770 mmHg 34%
    19:00 -2°C° 0 mm 2 mps 770 mmHg 38%
    20:00 -2°C° 0 mm 2 mps 770 mmHg 38%
    21:00 -3°C° 0 mm 2 mps 770 mmHg 38%
    22:00 -3°C° 0 mm 2 mps 770 mmHg 39%
    23:00 -3°C° 0 mm 2 mps 770 mmHg 38%

    Tomorrow, 24 February, Sunday

    Time Temperature Precipitation Wind Pressure Humidity
    00:00 -3°C° 0 mm 2 mps 770 mmHg 37%
    01:00 -2°C° 0 mm 2 mps 770 mmHg 37%
    02:00 0°C° 0 mm 1 mps 769 mmHg 35%
    03:00 0°C° 0 mm 1 mps 769 mmHg 34%
    04:00 -1°C° 0 mm 0 mps 769 mmHg 33%
    05:00 -1°C° 0 mm 0 mps 769 mmHg 32%
    06:00 0°C° 0 mm 1 mps 768 mmHg 32%
    07:00 +1°C° 0 mm 1 mps 768 mmHg 31%
    08:00 +2°C° 0 mm 1 mps 768 mmHg 31%
    09:00 +3°C° 0 mm 1 mps 768 mmHg 30%
    10:00 +4°C° 0 mm 1 mps 768 mmHg 29%
    11:00 +4°C° 0 mm 2 mps 768 mmHg 28%
    12:00 +5°C° 0 mm 2 mps 768 mmHg 27%
    13:00 +6°C° 0 mm 2 mps 768 mmHg 27%
    14:00 +6°C° 0 mm 2 mps 768 mmHg 32%
    15:00 +6°C° 0 mm 2 mps 767 mmHg 37%
    16:00 +6°C° 0 mm 2 mps 767 mmHg 43%
    17:00 +4°C° 0 mm 2 mps 767 mmHg 46%
    18:00 +3°C° 0 mm 2 mps 767 mmHg 50%
    19:00 +2°C° 0 mm 2 mps 767 mmHg 54%
    20:00 +1°C° 0 mm 3 mps 767 mmHg 56%
    21:00 0°C° 0 mm 3 mps 767 mmHg 58%
    22:00 0°C° 0 mm 3 mps 767 mmHg 61%
    23:00 0°C° 0 mm 3 mps 767 mmHg 62%

    Day after tomorrow, 25 February, Monday

    Time Temperature Precipitation Wind Pressure Humidity
    00:00 0°C° 0 mm 3 mps 767 mmHg 64%
    01:00 0°C° 0 mm 3 mps 767 mmHg 66%
    02:00 0°C° 0 mm 3 mps 767 mmHg 67%
    03:00 0°C° 0 mm 3 mps 767 mmHg 68%
    04:00 0°C° 0 mm 3 mps 767 mmHg 69%
    05:00 0°C° 0 mm 3 mps 767 mmHg 70%
    06:00 0°C° 0 mm 3 mps 767 mmHg 71%
    07:00 -1°C° 0 mm 3 mps 767 mmHg 72%
    08:00 0°C° 0 mm 4 mps 767 mmHg 68%
    09:00 +3°C° 0 mm 4 mps 767 mmHg 63%
    10:00 +3°C° 0 mm 5 mps 767 mmHg 59%
    11:00 +5°C° 0 mm 5 mps 766 mmHg 59%
    12:00 +7°C° 0 mm 5 mps 766 mmHg 59%
    13:00 +8°C° 0 mm 5 mps 766 mmHg 59%
    14:00 +8°C° 0 mm 5 mps 765 mmHg 60%
    15:00 +8°C° 0 mm 4 mps 765 mmHg 61%
    16:00 +8°C° 0 mm 4 mps 765 mmHg 63%
    17:00 +7°C° 0 mm 4 mps 765 mmHg 68%
    18:00 +6°C° 0 mm 4 mps 765 mmHg 73%
    19:00 +4°C° 0 mm 4 mps 765 mmHg 78%
    20:00 +4°C° 0 mm 4 mps 765 mmHg 81%
    21:00 +3°C° 0 mm 4 mps 765 mmHg 83%
    22:00 +3°C° 0 mm 4 mps 765 mmHg 86%
    23:00 +3°C° 0 mm 4 mps 765 mmHg 87%

    26 February, Tuesday

    Time Temperature Precipitation Wind Pressure Humidity
    00:00 +3°C° 0 mm 4 mps 765 mmHg 88%
    01:00 +2°C° 0 mm 3 mps 764 mmHg 89%
    02:00 +1°C° 0 mm 4 mps 764 mmHg 90%
    03:00 +3°C° 0 mm 4 mps 764 mmHg 90%
    04:00 +3°C° 0 mm 4 mps 763 mmHg 91%
    05:00 +2°C° 0 mm 5 mps 763 mmHg 90%
    06:00 +1°C° 0 mm 5 mps 763 mmHg 90%
    07:00 +1°C° 0 mm 5 mps 763 mmHg 89%
    08:00 +3°C° 0 mm 5 mps 763 mmHg 83%
    09:00 +4°C° 0 mm 6 mps 762 mmHg 77%
    10:00 +5°C° 0 mm 7 mps 762 mmHg 71%
    11:00 +6°C° 0 mm 7 mps 762 mmHg 66%
    12:00 +8°C° 0 mm 7 mps 762 mmHg 62%
    13:00 +9°C° 0 mm 7 mps 761 mmHg 57%
    14:00 +10°C° 0 mm 7 mps 761 mmHg 57%
    15:00 +10°C° 0 mm 6 mps 761 mmHg 57%
    16:00 +10°C° 0 mm 6 mps 761 mmHg 56%
    17:00 +9°C° 0 mm 5 mps 761 mmHg 60%
    18:00 +8°C° 0 mm 5 mps 761 mmHg 64%
    19:00 +6°C° 0 mm 4 mps 761 mmHg 68%
    20:00 +6°C° 0 mm 4 mps 761 mmHg 70%
    21:00 +5°C° 0 mm 4 mps 762 mmHg 72%
    22:00 +5°C° 0 mm 4 mps 762 mmHg 74%
    23:00 +4°C° 0 mm 4 mps 762 mmHg 76%

    27 February, Wednesday

    Time Temperature Precipitation Wind Pressure Humidity
    00:00 +4°C° 0 mm 4 mps 761 mmHg 77%
    01:00 +4°C° 0 mm 4 mps 761 mmHg 78%
    02:00 +3°C° 0 mm 3 mps 761 mmHg 80%
    03:00 +3°C° 0 mm 3 mps 761 mmHg 82%
    04:00 +2°C° 0 mm 3 mps 761 mmHg 83%
    05:00 +2°C° 0 mm 3 mps 761 mmHg 84%
    06:00 +2°C° 0 mm 3 mps 760 mmHg 84%
    07:00 +2°C° 0 mm 3 mps 760 mmHg 85%
    08:00 +3°C° 0 mm 4 mps 760 mmHg 78%
    09:00 +5°C° 0 mm 4 mps 760 mmHg 70%
    10:00 +7°C° 0 mm 5 mps 760 mmHg 63%
    11:00 +8°C° 0 mm 5 mps 759 mmHg 59%
    12:00 +9°C° 0 mm 5 mps 759 mmHg 54%
    13:00 +12°C° 0 mm 5 mps 758 mmHg 50%
    14:00 +12°C° 0 mm 5 mps 758 mmHg 50%
    15:00 +12°C° 0 mm 5 mps 757 mmHg 50%
    16:00 +12°C° 0 mm 5 mps 757 mmHg 50%
    17:00 +11°C° 0 mm 4 mps 757 mmHg 56%
    18:00 +8°C° 0 mm 4 mps 757 mmHg 61%
    19:00 +8°C° 0 mm 3 mps 757 mmHg 66%
    20:00 +7°C° 0 mm 3 mps 756 mmHg 68%
    21:00 +7°C° 0 mm 3 mps 756 mmHg 70%
    22:00 +5°C° 0 mm 3 mps 755 mmHg 71%
    23:00 +5°C° 0 mm 3 mps 755 mmHg 70%

    28 February, Thursday

    Time Temperature Precipitation Wind Pressure Humidity
    00:00 +5°C° 0 mm 3 mps 754 mmHg 68%
    01:00 +5°C° 0 mm 3 mps 754 mmHg 66%
    02:00 +5°C° 0 mm 3 mps 753 mmHg 63%
    03:00 +5°C° 0 mm 3 mps 752 mmHg 61%
    04:00 +5°C° 0 mm 4 mps 752 mmHg 58%
    05:00 +5°C° 0 mm 4 mps 751 mmHg 58%
    06:00 +5°C° 0 mm 4 mps 751 mmHg 59%
    07:00 +5°C° 0 mm 5 mps 750 mmHg 59%
    08:00 +5°C° 0 mm 6 mps 750 mmHg 61%
    09:00 +7°C° 0 mm 8 mps 749 mmHg 62%
    10:00 +8°C° 0 mm 9 mps 749 mmHg 64%
    11:00 +8°C° 0 mm 9 mps 749 mmHg 67%
    12:00 +8°C° 0 mm 10 mps 749 mmHg 70%
    13:00 +8°C° 0 mm 10 mps 748 mmHg 73%
    14:00 +7°C° 0 mm 10 mps 749 mmHg 74%
    15:00 +7°C° 0 mm 10 mps 749 mmHg 74%
    16:00 +7°C° 0 mm 9 mps 749 mmHg 75%
    17:00 +7°C° 0.1 mm 9 mps 749 mmHg 76%
    18:00 +6°C° 0.1 mm 9 mps 749 mmHg 76%
    19:00 +6°C° 0.1 mm 8 mps 750 mmHg 77%
    20:00 +6°C° 0.1 mm 8 mps 750 mmHg 77%
    21:00 +6°C° 0.1 mm 7 mps 750 mmHg 78%
    22:00 +6°C° 0.1 mm 7 mps 750 mmHg 79%
    23:00 +6°C° 0.1 mm 7 mps 750 mmHg 80%
    Show more